Weather History for K8D3 - September, 2012

Change the Weather History Date:

Wednesday, September 19, 2012

  Actual Average Record
Temperature  
Mean Temperature 60 °F 58 °F  
Max Temperature 70 °F 71 °F 97 °F (1984)
Min Temperature 50 °F 46 °F 30 °F (1937)
Degree Days  
Heating Degree Days 5 8  
Month to date heating degree days 89 95  
Since 1 July heating degree days 125 138  
Cooling Degree Days 0 1  
Month to date cooling degree days 43 38  
Year to date cooling degree days 705 517  
Growing Degree Days 10 (Base 50)    
Moisture  
Dew Point 36 °F    
Average Humidity 42    
Maximum Humidity 59    
Minimum Humidity 24    
Precipitation  
Precipitation 0.00 in 0.10 in 1.14 in (1986)
Month to date precipitation 0.17 1.56  
Year to date precipitation 14.44 18.30  
Sea Level Pressure  
Sea Level Pressure 29.74 in    
Wind  
Wind Speed 19 mph (NW)    
Max Wind Speed 36 mph    
Max Gust Speed 45 mph    
T = Trace of Precipitation, MM = Missing Value Source: NWS Daily Summary

Daily Weather History Graph

Daily Weather History Graph

Search for Another Location

Airport or City:

Trip Planner

Search our weather history database for the weather conditions in past years. The results will help you decide how hot, cold, wet, or windy it might be!

Date:

Astronomy

Sep. 19, 2012 Rise Set
Actual Time 7:11 AM CDT 7:30 PM CDT
Civil Twilight 6:42 AM CDT 7:59 PM CDT
Nautical Twilight 6:07 AM CDT 8:34 PM CDT
Astronomical Twilight 5:30 AM CDT 9:10 PM CDT
Moon 11:39 AM CDT (9/19) 9:24 PM CDT (9/19)
Length of Visible Light 13h 17m
Length of Day
12h 18m
Waxing Crescent, 17% of the Moon is Illuminated
Sep 19
Waxing Crescent
Sep 22
First Quarter
Sep 29
Full
Oct 8
Last Quarter
Oct 15
New

Hourly Weather History & Observations

Time (CDT) Temp. Dew Point Humidity Pressure Visibility Wind Dir Wind Speed Gust Speed Precip Events Conditions
12:56 AM 52.0 °F 37.9 °F 59% 29.70 in - SSE 8.1 mph - N/A   Unknown
1:27 AM 59.0 °F 39.2 °F 48% 29.69 in - SW 12.7 mph 21.9 mph N/A   Unknown
1:56 AM 59.0 °F 39.9 °F 49% 29.66 in - SW 10.4 mph - N/A   Unknown
2:56 AM 62.1 °F 39.0 °F 43% 29.61 in - WSW 16.1 mph 23.0 mph N/A   Unknown
3:56 AM 60.1 °F 39.9 °F 47% 29.59 in - West 16.1 mph 23.0 mph N/A   Unknown
4:56 AM 61.0 °F 41.0 °F 48% 29.58 in - West 15.0 mph - N/A   Unknown
5:33 AM 62.6 °F 39.2 °F 42% 29.64 in - WNW 19.6 mph 28.8 mph N/A   Unknown
5:56 AM 61.0 °F 41.0 °F 48% 29.62 in - WNW 15.0 mph - N/A   Unknown
6:56 AM 60.1 °F 42.1 °F 51% 29.65 in - NW 12.7 mph - N/A   Unknown
7:56 AM 59.0 °F 41.0 °F 51% 29.68 in - NW 15.0 mph - N/A   Unknown
8:56 AM 63.0 °F 41.0 °F 45% 29.70 in - NNW 19.6 mph 24.2 mph N/A   Unknown
9:56 AM 66.0 °F 42.1 °F 42% 29.71 in - NNW 25.3 mph 31.1 mph N/A   Unknown
10:56 AM 66.0 °F 41.0 °F 40% 29.73 in - NNW 29.9 mph 36.8 mph N/A   Unknown
11:56 AM 66.9 °F 39.9 °F 37% 29.74 in - NNW 31.1 mph 41.4 mph N/A   Unknown
12:56 PM 66.9 °F 36.0 °F 32% 29.77 in - NNW 29.9 mph 44.9 mph 0.97 in   Unknown
1:56 PM 68.0 °F 35.1 °F 30% 29.76 in - North 28.8 mph 36.8 mph N/A   Unknown
2:56 PM 69.1 °F 32.0 °F 25% 29.77 in - NNW 25.3 mph 36.8 mph N/A   Unknown
3:56 PM 69.1 °F 32.0 °F 25% 29.78 in - NNW 21.9 mph 34.5 mph N/A   Unknown
4:56 PM 66.9 °F 28.9 °F 24% 29.80 in - NNW 29.9 mph 36.8 mph N/A   Unknown
5:56 PM 64.9 °F 28.0 °F 25% 29.81 in - NNW 23.0 mph 31.1 mph N/A   Unknown
6:56 PM 62.1 °F 28.9 °F 29% 29.84 in - NNW 17.3 mph 24.2 mph N/A   Unknown
7:56 PM 57.9 °F 28.9 °F 33% 29.86 in - NNW 11.5 mph - N/A   Unknown
8:56 PM 55.0 °F 30.0 °F 38% 29.88 in - NW 10.4 mph - N/A   Unknown
9:56 PM 55.9 °F 28.0 °F 34% 29.88 in - NW 13.8 mph - N/A   Unknown
10:56 PM 52.0 °F 28.0 °F 40% 29.89 in - NW 10.4 mph - N/A   Unknown
11:56 PM 52.0 °F 28.9 °F 41% 29.90 in - NW 11.5 mph - N/A   Unknown